Location: Anumalkud?ru
(16.4847°N, 80.6636°E)
Time: 22:21:25
(UTC+00:00)

CZ-3C R/B - Pass Details

Date: 11 April 2026
Orbit: 270 x 30757 km, 20.3° (Epoch: 9 May)

Event Time Altitude Azimuth Distance (km) Brightness Sun altitude
Rises 13:42:29 0° 269° (W) 2,551 6.4 -12.7°
Reaches altitude 10° 13:43:48 10° 262° (W) 2,009 5.4 -13.0°
Maximum altitude 13:47:48 47° 186° (S) 1,597 3.5 -14.0°
Enters shadow 14:01:25 16° 121° (ESE) 6,988 6.3 -17.1°
